NOAA NWS Hourly Roundups by Site

Regional Weather Roundup for Green Bay, WI

To Select Another Site Choose from List

Select Site:  

000
ASUS43 KGRB 282111
RWRGRB

NORTH-CENTRAL AND NORTHEAST WISCONSIN REGIONAL WEATHER ROUNDUP
NATIONAL WEATHER SERVICE GREEN BAY WI
300 PM CST SUN NOV 28 2021

WIZ005-009-010>012-018-019-282200-
NORTH CENTRAL WISCONSIN

CITY           SKY/WX    TMP DP  RH WIND       PRES   REMARKS
IRONWOOD       FLURRIES  27  19  72 W13       30.01S
MANITOWISH WTR CLOUDY    27  17  64 NW8       29.98S
ARBOR VITAE    CLOUDY    29  -1  26 NW3       29.98S
EAGLE RIVER    CLOUDY    27  19  72 W8        29.98R
LAND O LAKES   CLOUDY    27  22  82 W6        29.98R
RHINELANDER    PTCLDY    28  16  60 W6        29.99R
PHILLIPS       SUNNY     31  15  51 W5        30.00S
ANTIGO         CLEAR     30  17  60 NW10      29.99R
TOMAHAWK       MOSUNNY   32  15  50 W7        30.00S
MERRILL        SUNNY     33  15  47 NW9       29.99S
$$

WIZ013-073-282200-
NORTHEAST WISCONSIN

CITY           SKY/WX    TMP DP  RH WIND       PRES   REMARKS
IRON MOUNTAIN  CLOUDY    31  20  63 W13G29    29.95R
MARINETTE      CLOUDY    35  23  61 NW14G21   29.97R
OCONTO         MOCLDY    34  22  61 NW9       29.99R
$$

WIZ017-030-035>037-045-282200-
CENTRAL WISCONSIN

CITY           SKY/WX    TMP DP  RH WIND       PRES   REMARKS
MEDFORD        SUNNY     32  15  49 NW10G17   30.01S
WAUSAU         SUNNY     36  15  42 W12       30.00R
MOSINEE        SUNNY     34  14  44 NW12G20   30.02R
MARSHFIELD     SUNNY     33  15  47 NW13      30.02S
WISC RAPIDS    SUNNY     35  14  42 W12G22    30.05R
STEVENS POINT  SUNNY     36  10  34 W10       30.03R
WAUPACA        SUNNY     38  14  38 W10G17    30.03R
SHAWANO        PTCLDY    37  19  49 N9G16     30.00R
CLINTONVILLE   SUNNY     36  16  44 NW13      30.02R
WAUTOMA        SUNNY     35  15  44 W16       30.04R
$$

WIZ038-039-048-051-282200-
FOX VALLEY

CITY           SKY/WX    TMP DP  RH WIND       PRES   REMARKS
NWS GREEN BAY  MOCLDY    37  18  46 NW14G23   29.99R
APPLETON       MOSUNNY   36  16  44 NW15G23   29.99R
OSHKOSH        SUNNY     36  17  46 NW14      30.00R
FOND DU LAC    SUNNY     41  15  35 NW15G21   30.01R
$$

WIZ022-050-052-282200-
EAST CENTRAL WISCONSIN

CITY           SKY/WX    TMP DP  RH WIND       PRES   REMARKS
EPHRAIM        MOCLDY    34  23  65 NW13G20   29.94R
WASHINGTON ISL MOCLDY    34  22  61 N16       29.93R
STURGEON BAY   CLOUDY    35  23  61 NW15      29.97R
MANITOWOC      PTCLDY    37  19  48 NW14G22   29.99R
SHEBOYGAN      SUNNY     37  19  48 NW17G24   29.99R
$$

LMZ563-521-522-541>543-282200-
LAKESHORE

STATION/POSITION TIME  TEMP    WIND        PRES    VSBY  WAVE
                       AIR SEA DIR/SP/G                  HT/PER
                 (UTC) (F)     (DEG/KT/KT) (MB)    (MI)  (FT/S)
SHEBOYGAN LKSHOR 2100   37     320/ 13/ 17 1016.5R
KEWAUNEE LKSHORE 2030   36     330/ 11/ 18 1013.3R
NORTHPORT PIER   2040   38     270/ 13/ 22 1014.6R
SISTER BAY LKSHO 2056   40     340/ 21/ 24   N/A
MENOMINEE LKSHOR 2024   35 40  290/ 14/ 18 1013.1
$$


 

View Past Reports for Green Bay, WI.

Products Courtesy of NOAA-NWS
NWS Information Parsing Script by Ken True at Saratoga Weather - Script by SE Lincoln Weather.